Regional Weather Roundup
Issued by NWS

Home | Current Version | Previous Version | Text Only | Print | Product List | Glossary On
Versions: 1 2 3 4 5 6 7 8 9 10 11 12 13 14 15 16 17 18 19 20 21 22 23 24 25 26 27
000
ASUS45 KBOI 201910
RWRID

IDAHO REGIONAL WEATHER ROUNDUP
NATIONAL WEATHER SERVICE BOISE ID
100 PM MDT SAT APR 20 2024

NOTE: "FAIR" INDICATES FEW OR NO CLOUDS BELOW 12000 FEET
WITH NO SIGNIFICANT WEATHER AND/OR OBSTRUCTIONS TO VISIBILITY

IDZ012-014-202000-
SOUTHWEST IDAHO


CITY           SKY/WX    TMP DP  RH WIND       PRES   REMARKS
BOISE          SUNNY     62  27  26 SE8       30.14S
CALDWELL       SUNNY     62  26  25 E6G18     30.14F
MOUNTAIN HOME  SUNNY     63  21  20 E10       30.11F
$$

IDZ016-017-202000-
SOUTHCENTRAL IDAHO


CITY           SKY/WX    TMP DP  RH WIND       PRES   REMARKS
BURLEY         SUNNY     58  23  26 NE7       30.15S
JEROME         SUNNY     61  22  22 MISG      30.15S
TWIN FALLS     MOSUNNY   60  22  23 NE10G17   30.15S
$$

IDZ019>023-202000-
SOUTHEAST IDAHO


CITY           SKY/WX    TMP DP  RH WIND       PRES   REMARKS
IDAHO FALLS    SUNNY     57  14  18 VRB3      30.18F
POCATELLO      SUNNY     59  22  24 N5        30.17F
REXBURG        SUNNY     53  16  23 VRB3      30.18S
$$

IDZ006-010-011-018-031-032-202000-
CENTRAL IDAHO MOUNTAINS


CITY           SKY/WX    TMP DP  RH WIND       PRES   REMARKS
MCCALL         SUNNY     52  20  28 CALM      30.14S
HAILEY         SUNNY     55  19  24 NE7       30.18S
STANLEY          N/A     48  16  27 VRB5      30.19S
SALMON         SUNNY     51  20  29 NE5       30.20F
CHALLIS        SUNNY     52  17  25 VRB3      30.17F
$$

IDZ002-004-006-007-026-202000-
NORTHERN IDAHO


CITY           SKY/WX    TMP DP  RH WIND       PRES   REMARKS
LEWISTON       SUNNY     63  32  31 E7        30.10F
LOWELL           N/A     63  26  24 CALM      30.12F
COEUR D`ALENE  SUNNY     54  22  28 N15       30.16F
MULLAN PASS    SUNNY     37  15  40 SE5       30.16S WCI  33
$$



USA.gov is the U.S. government's official web portal to all federal, state and local government web resources and services.